Regional Weather Roundup
Issued by NWS

Home | Current Version | Previous Version | Graphics & Text | Print | Product List | Glossary On
Versions: 1 2 3 4 5 6 7 8 9 10 11 12 13 14 15 16 17 18 19 20 21 22 23 24 25 26 27 28 29 30 31 32 33 34 35 36 37 38 39 40 41 42 43 44 45 46 47 48 49 50
334
ASUS43 KBIS 182110
RWRND

NORTH DAKOTA REGIONAL WEATHER ROUNDUP
NATIONAL WEATHER SERVICE BISMARCK ND
300 PM CST MON DEC 18 2017

NOTE: "FAIR" INDICATES FEW OR NO CLOUDS BELOW 12,000 FEET WITH NO
SIGNIFICANT WEATHER AND/OR OBSTRUCTIONS TO VISIBILITY.


NDZ001>003-009>011-017-182200-
NORTHWEST NORTH DAKOTA

CITY           SKY/WX    TMP DP  RH WIND       PRES   REMARKS
WILLISTON      CLOUDY    36  31  82 N6        29.62R
MINOT          CLOUDY    36  33  89 NW9       29.55R
MINOT AFB      CLOUDY    35  32  90 W8        29.54S
$$

NDZ018>021-031>035-040>046-182200-
SOUTHWEST NORTH DAKOTA

CITY           SKY/WX    TMP DP  RH WIND       PRES   REMARKS
BISMARCK       CLOUDY    47  33  58 W16       29.58S
DICKINSON      PTSUNNY   47  29  49 W21G30    29.58R
GARRISON         N/A     37  35  92 NW15      29.55S
HETTINGER ARPT MOSUNNY   51  27  39 W25G31    29.64R
$$

NDZ004>008-012>016-024-026-027-054-182200-
NORTHEAST NORTH DAKOTA

CITY           SKY/WX    TMP DP  RH WIND       PRES   REMARKS
GRAND FORKS    LGT RAIN  37  31  78 W14       29.51R
GRND FRKS AFB  CLOUDY    37  28  70 W10       29.51R
DEVILS LAKE    MIX PCPN  35  29  78 NW13      29.54R
$$

NDZ022-023-025-028>030-036>039-047>053-182200-
SOUTHEAST NORTH DAKOTA

CITY           SKY/WX    TMP DP  RH WIND       PRES   REMARKS
FARGO          CLOUDY    36  33  89 SW12      29.55R
JAMESTOWN      CLOUDY    40  32  73 W17       29.54R
$$





USA.gov is the U.S. government's official web portal to all federal, state and local government web resources and services.